﻿測定場所 (Monitoring sites),日付 (Measurement date),時間 (Measurement time),線量率 最大値 (max) μGy/h,線量率 最小値 (min) μGy/h,線量率 平均値 (average) μGy/h,
江戸川 (Edogawa),2012-11-25,23:01～24:00,0.103,0.0911,0.0975,
江戸川 (Edogawa),2012-11-25,22:01～23:00,0.104,0.0917,0.0980,
江戸川 (Edogawa),2012-11-25,21:01～22:00,0.104,0.0918,0.0975,
江戸川 (Edogawa),2012-11-25,20:01～21:00,0.104,0.0932,0.0976,
江戸川 (Edogawa),2012-11-25,19:01～20:00,0.103,0.0923,0.0977,
江戸川 (Edogawa),2012-11-25,18:01～19:00,0.104,0.0904,0.0978,
江戸川 (Edogawa),2012-11-25,17:01～18:00,0.103,0.0929,0.0970,
江戸川 (Edogawa),2012-11-25,16:01～17:00,0.103,0.0928,0.0982,
江戸川 (Edogawa),2012-11-25,15:01～16:00,0.104,0.0920,0.0980,
江戸川 (Edogawa),2012-11-25,14:01～15:00,0.106,0.0926,0.0984,
江戸川 (Edogawa),2012-11-25,13:01～14:00,0.104,0.0907,0.0982,
江戸川 (Edogawa),2012-11-25,12:01～13:00,0.104,0.0939,0.0982,
江戸川 (Edogawa),2012-11-25,11:01～12:00,0.103,0.0924,0.0980,
江戸川 (Edogawa),2012-11-25,10:01～11:00,0.103,0.0927,0.0980,
江戸川 (Edogawa),2012-11-25,09:01～10:00,0.105,0.0921,0.0978,
江戸川 (Edogawa),2012-11-25,08:01～09:00,0.104,0.0910,0.0971,
江戸川 (Edogawa),2012-11-25,07:01～08:00,0.101,0.0921,0.0973,
江戸川 (Edogawa),2012-11-25,06:01～07:00,0.104,0.0910,0.0969,
江戸川 (Edogawa),2012-11-25,05:01～06:00,0.103,0.0915,0.0966,
江戸川 (Edogawa),2012-11-25,04:01～05:00,0.103,0.0910,0.0969,
江戸川 (Edogawa),2012-11-25,03:01～04:00,0.103,0.0916,0.0960,
江戸川 (Edogawa),2012-11-25,02:01～03:00,0.101,0.0891,0.0964,
江戸川 (Edogawa),2012-11-25,01:01～02:00,0.105,0.0914,0.0970,
江戸川 (Edogawa),2012-11-25,00:01～01:00,0.101,0.0911,0.0968,
江戸川 (Edogawa),2012-11-24,23:01～24:00,0.102,0.0917,0.0974,
江戸川 (Edogawa),2012-11-24,22:01～23:00,0.104,0.0933,0.0975,
江戸川 (Edogawa),2012-11-24,21:01～22:00,0.105,0.0914,0.0975,
江戸川 (Edogawa),2012-11-24,20:01～21:00,0.103,0.0914,0.0969,
江戸川 (Edogawa),2012-11-24,19:01～20:00,0.104,0.0924,0.0975,
江戸川 (Edogawa),2012-11-24,18:01～19:00,0.103,0.0914,0.0973,
江戸川 (Edogawa),2012-11-24,17:01～18:00,0.102,0.0909,0.0970,
江戸川 (Edogawa),2012-11-24,16:01～17:00,0.106,0.0913,0.0973,
江戸川 (Edogawa),2012-11-24,15:01～16:00,0.108,0.0934,0.0982,
江戸川 (Edogawa),2012-11-24,14:01～15:00,0.105,0.0932,0.0992,
江戸川 (Edogawa),2012-11-24,13:01～14:00,0.104,0.0930,0.0986,
江戸川 (Edogawa),2012-11-24,12:01～13:00,0.105,0.0938,0.0983,
江戸川 (Edogawa),2012-11-24,11:01～12:00,0.102,0.0930,0.0984,
江戸川 (Edogawa),2012-11-24,10:01～11:00,0.106,0.0937,0.0984,
江戸川 (Edogawa),2012-11-24,09:01～10:00,0.104,0.0938,0.0987,
江戸川 (Edogawa),2012-11-24,08:01～09:00,0.107,0.0930,0.0991,
江戸川 (Edogawa),2012-11-24,07:01～08:00,0.102,0.0934,0.0978,
江戸川 (Edogawa),2012-11-24,06:01～07:00,0.106,0.0946,0.0984,
江戸川 (Edogawa),2012-11-24,05:01～06:00,0.104,0.0906,0.0986,
江戸川 (Edogawa),2012-11-24,04:01～05:00,0.108,0.0936,0.0992,
江戸川 (Edogawa),2012-11-24,03:01～04:00,0.107,0.0915,0.0980,
江戸川 (Edogawa),2012-11-24,02:01～03:00,0.104,0.0927,0.0985,
江戸川 (Edogawa),2012-11-24,01:01～02:00,0.107,0.0921,0.0982,
江戸川 (Edogawa),2012-11-24,00:01～01:00,0.105,0.0896,0.0979,
江戸川 (Edogawa),2012-11-23,23:01～24:00,0.103,0.0932,0.0977,
江戸川 (Edogawa),2012-11-23,22:01～23:00,0.103,0.0926,0.0981,
江戸川 (Edogawa),2012-11-23,21:01～22:00,0.102,0.0929,0.0981,
江戸川 (Edogawa),2012-11-23,20:01～21:00,0.106,0.0921,0.0988,
江戸川 (Edogawa),2012-11-23,19:01～20:00,0.104,0.0924,0.0985,
江戸川 (Edogawa),2012-11-23,18:01～19:00,0.104,0.0937,0.0984,
江戸川 (Edogawa),2012-11-23,17:01～18:00,0.106,0.0935,0.0985,
江戸川 (Edogawa),2012-11-23,16:01～17:00,0.107,0.0946,0.100,
江戸川 (Edogawa),2012-11-23,15:01～16:00,0.109,0.0969,0.103,
江戸川 (Edogawa),2012-11-23,14:01～15:00,0.111,0.0965,0.103,
江戸川 (Edogawa),2012-11-23,13:01～14:00,0.107,0.0953,0.101,
江戸川 (Edogawa),2012-11-23,12:01～13:00,0.109,0.0969,0.102,
江戸川 (Edogawa),2012-11-23,11:01～12:00,0.111,0.0969,0.104,
江戸川 (Edogawa),2012-11-23,10:01～11:00,0.113,0.102,0.108,
江戸川 (Edogawa),2012-11-23,09:01～10:00,0.116,0.100,0.109,
江戸川 (Edogawa),2012-11-23,08:01～09:00,0.112,0.0974,0.107,
江戸川 (Edogawa),2012-11-23,07:01～08:00,0.106,0.0961,0.102,
江戸川 (Edogawa),2012-11-23,06:01～07:00,0.105,0.0935,0.0997,
江戸川 (Edogawa),2012-11-23,05:01～06:00,0.107,0.0938,0.0998,
江戸川 (Edogawa),2012-11-23,04:01～05:00,0.105,0.0936,0.0997,
江戸川 (Edogawa),2012-11-23,03:01～04:00,0.105,0.0953,0.0996,
江戸川 (Edogawa),2012-11-23,02:01～03:00,0.107,0.0942,0.0994,
江戸川 (Edogawa),2012-11-23,01:01～02:00,0.107,0.0929,0.0993,
江戸川 (Edogawa),2012-11-23,00:01～01:00,0.103,0.0941,0.0992,
江戸川 (Edogawa),2012-11-22,23:01～24:00,0.104,0.0936,0.0983,
江戸川 (Edogawa),2012-11-22,22:01～23:00,0.106,0.0926,0.0985,
江戸川 (Edogawa),2012-11-22,21:01～22:00,0.105,0.0942,0.0992,
江戸川 (Edogawa),2012-11-22,20:01～21:00,0.104,0.0924,0.0992,
江戸川 (Edogawa),2012-11-22,19:01～20:00,0.104,0.0941,0.0990,
江戸川 (Edogawa),2012-11-22,18:01～19:00,0.105,0.0954,0.0995,
江戸川 (Edogawa),2012-11-22,17:01～18:00,0.109,0.0938,0.0994,
江戸川 (Edogawa),2012-11-22,16:01～17:00,0.105,0.0940,0.0994,
江戸川 (Edogawa),2012-11-22,15:01～16:00,0.106,0.0929,0.0995,
江戸川 (Edogawa),2012-11-22,14:01～15:00,0.107,0.0936,0.0994,
江戸川 (Edogawa),2012-11-22,13:01～14:00,0.105,0.0936,0.0994,
江戸川 (Edogawa),2012-11-22,12:01～13:00,0.107,0.0942,0.100,
江戸川 (Edogawa),2012-11-22,11:01～12:00,0.107,0.0943,0.0998,
江戸川 (Edogawa),2012-11-22,10:01～11:00,0.105,0.0927,0.0988,
江戸川 (Edogawa),2012-11-22,09:01～10:00,0.105,0.0938,0.0990,
江戸川 (Edogawa),2012-11-22,08:01～09:00,0.105,0.0943,0.0996,
江戸川 (Edogawa),2012-11-22,07:01～08:00,0.106,0.0937,0.0994,
江戸川 (Edogawa),2012-11-22,06:01～07:00,0.106,0.0932,0.0997,
江戸川 (Edogawa),2012-11-22,05:01～06:00,0.112,0.0965,0.105,
江戸川 (Edogawa),2012-11-22,04:01～05:00,0.115,0.102,0.109,
江戸川 (Edogawa),2012-11-22,03:01～04:00,0.114,0.0961,0.103,
江戸川 (Edogawa),2012-11-22,02:01～03:00,0.107,0.0922,0.101,
江戸川 (Edogawa),2012-11-22,01:01～02:00,0.106,0.0946,0.0996,
江戸川 (Edogawa),2012-11-22,00:01～01:00,0.106,0.0920,0.0996,
江戸川 (Edogawa),2012-11-21,23:01～24:00,0.106,0.0923,0.0997,
江戸川 (Edogawa),2012-11-21,22:01～23:00,0.103,0.0933,0.0987,
江戸川 (Edogawa),2012-11-21,21:01～22:00,0.105,0.0949,0.100,
江戸川 (Edogawa),2012-11-21,20:01～21:00,0.107,0.0929,0.0998,
江戸川 (Edogawa),2012-11-21,19:01～20:00,0.104,0.0935,0.0993,
江戸川 (Edogawa),2012-11-21,18:01～19:00,0.105,0.0944,0.0992,
江戸川 (Edogawa),2012-11-21,17:01～18:00,0.106,0.0925,0.0989,
江戸川 (Edogawa),2012-11-21,16:01～17:00,0.106,0.0929,0.0991,
江戸川 (Edogawa),2012-11-21,15:01～16:00,0.108,0.0941,0.0999,
江戸川 (Edogawa),2012-11-21,14:01～15:00,0.107,0.0959,0.100,
江戸川 (Edogawa),2012-11-21,13:01～14:00,0.106,0.0951,0.0999,
江戸川 (Edogawa),2012-11-21,12:01～13:00,0.106,0.0935,0.0998,
江戸川 (Edogawa),2012-11-21,11:01～12:00,0.106,0.0950,0.101,
江戸川 (Edogawa),2012-11-21,10:01～11:00,0.106,0.0947,0.0993,
江戸川 (Edogawa),2012-11-21,09:01～10:00,0.106,0.0920,0.0992,
江戸川 (Edogawa),2012-11-21,08:01～09:00,0.105,0.0906,0.0993,
江戸川 (Edogawa),2012-11-21,07:01～08:00,0.105,0.0929,0.0989,
江戸川 (Edogawa),2012-11-21,06:01～07:00,0.104,0.0938,0.0996,
江戸川 (Edogawa),2012-11-21,05:01～06:00,0.104,0.0946,0.0992,
江戸川 (Edogawa),2012-11-21,04:01～05:00,0.104,0.0939,0.0994,
江戸川 (Edogawa),2012-11-21,03:01～04:00,0.108,0.0934,0.0998,
江戸川 (Edogawa),2012-11-21,02:01～03:00,0.106,0.0909,0.0999,
江戸川 (Edogawa),2012-11-21,01:01～02:00,0.105,0.0949,0.0994,
江戸川 (Edogawa),2012-11-21,00:01～01:00,0.105,0.0936,0.100,
江戸川 (Edogawa),2012-11-20,23:01～24:00,0.106,0.0933,0.0997,
江戸川 (Edogawa),2012-11-20,22:01～23:00,0.106,0.0935,0.0995,
江戸川 (Edogawa),2012-11-20,21:01～22:00,0.107,0.0929,0.0999,
江戸川 (Edogawa),2012-11-20,20:01～21:00,0.106,0.0932,0.0993,
江戸川 (Edogawa),2012-11-20,19:01～20:00,0.106,0.0937,0.0997,
江戸川 (Edogawa),2012-11-20,18:01～19:00,0.105,0.0937,0.0993,
江戸川 (Edogawa),2012-11-20,17:01～18:00,0.105,0.0929,0.0994,
江戸川 (Edogawa),2012-11-20,16:01～17:00,0.107,0.0933,0.100,
江戸川 (Edogawa),2012-11-20,15:01～16:00,0.106,0.0932,0.101,
江戸川 (Edogawa),2012-11-20,14:01～15:00,0.107,0.0972,0.101,
江戸川 (Edogawa),2012-11-20,13:01～14:00,0.110,0.0962,0.101,
江戸川 (Edogawa),2012-11-20,12:01～13:00,0.105,0.0968,0.101,
江戸川 (Edogawa),2012-11-20,11:01～12:00,0.106,0.0961,0.101,
江戸川 (Edogawa),2012-11-20,10:01～11:00,0.106,0.0947,0.101,
江戸川 (Edogawa),2012-11-20,09:01～10:00,0.105,0.0949,0.100,
江戸川 (Edogawa),2012-11-20,08:01～09:00,0.108,0.0960,0.100,
江戸川 (Edogawa),2012-11-20,07:01～08:00,0.105,0.0936,0.0999,
江戸川 (Edogawa),2012-11-20,06:01～07:00,0.107,0.0948,0.0997,
江戸川 (Edogawa),2012-11-20,05:01～06:00,0.104,0.0917,0.0986,
江戸川 (Edogawa),2012-11-20,04:01～05:00,0.104,0.0932,0.0989,
江戸川 (Edogawa),2012-11-20,03:01～04:00,0.106,0.0932,0.0985,
江戸川 (Edogawa),2012-11-20,02:01～03:00,0.103,0.0914,0.0976,
江戸川 (Edogawa),2012-11-20,01:01～02:00,0.105,0.0908,0.0984,
江戸川 (Edogawa),2012-11-20,00:01～01:00,0.104,0.0917,0.0985,
江戸川 (Edogawa),2012-11-19,23:01～24:00,0.105,0.0903,0.0981,
江戸川 (Edogawa),2012-11-19,22:01～23:00,0.104,0.0922,0.0983,
江戸川 (Edogawa),2012-11-19,21:01～22:00,0.104,0.0913,0.0982,
江戸川 (Edogawa),2012-11-19,20:01～21:00,0.104,0.0940,0.0989,
江戸川 (Edogawa),2012-11-19,19:01～20:00,0.104,0.0912,0.0982,
江戸川 (Edogawa),2012-11-19,18:01～19:00,0.108,0.0921,0.0984,
江戸川 (Edogawa),2012-11-19,17:01～18:00,0.105,0.0927,0.0988,
江戸川 (Edogawa),2012-11-19,16:01～17:00,0.103,0.0927,0.0986,
江戸川 (Edogawa),2012-11-19,15:01～16:00,0.106,0.0922,0.0988,
江戸川 (Edogawa),2012-11-19,14:01～15:00,0.104,0.0946,0.0991,
江戸川 (Edogawa),2012-11-19,13:01～14:00,0.105,0.0954,0.0993,
江戸川 (Edogawa),2012-11-19,12:01～13:00,0.106,0.0936,0.0993,
江戸川 (Edogawa),2012-11-19,11:01～12:00,0.107,0.0930,0.0986,
江戸川 (Edogawa),2012-11-19,10:01～11:00,0.106,0.0928,0.0994,
江戸川 (Edogawa),2012-11-19,09:01～10:00,0.104,0.0930,0.0991,
江戸川 (Edogawa),2012-11-19,08:01～09:00,0.105,0.0927,0.0987,
江戸川 (Edogawa),2012-11-19,07:01～08:00,0.103,0.0913,0.0982,
江戸川 (Edogawa),2012-11-19,06:01～07:00,0.104,0.0937,0.0988,
江戸川 (Edogawa),2012-11-19,05:01～06:00,0.102,0.0936,0.0982,
江戸川 (Edogawa),2012-11-19,04:01～05:00,0.104,0.0921,0.0984,
江戸川 (Edogawa),2012-11-19,03:01～04:00,0.102,0.0922,0.0981,
江戸川 (Edogawa),2012-11-19,02:01～03:00,0.107,0.0916,0.0987,
江戸川 (Edogawa),2012-11-19,01:01～02:00,0.105,0.0893,0.0984,
江戸川 (Edogawa),2012-11-19,00:01～01:00,0.104,0.0923,0.0987,
